Regional Weather Roundup
Issued by NWS

Home | Current Version | Previous Version | Graphics & Text | Print | Product List | Glossary On
Versions: 1 2 3 4 5 6 7 8 9 10 11 12 13 14 15 16 17 18 19 20 21 22 23 24 25 26 27 28 29 30 31 32 33 34 35 36 37 38 39 40 41 42 43 44 45 46 47 48 49 50
000
ASUS43 KLMK 230110
RWRKY
KENTUCKY REGIONAL WEATHER ROUNDUP
NATIONAL WEATHER SERVICE LOUISVILLE KY
900 PM EDT FRI MAY 22 2015

NOTE "FAIR" INDICATES FEW OR NO CLOUDS BELOW 12,000 FEET
WITH NO SIGNIFICANT WEATHER AND/OR OBSTRUCTIONS TO VISIBILITY.

KYZ001>023-026-027-061>063-070>075-230200-
WESTERN AND SOUTH CENTRAL KENTUCKY

CITY           SKY/WX    TMP DP  RH WIND       PRES   REMARKS
PADUCAH        CLOUDY    68  52  56 N3        30.24R
HENDERSON      CLOUDY    66  54  63 SW5       30.24R
OWENSBORO      CLOUDY    69  55  60 SW5       30.26R
HOPKINSVILLE   MOCLDY    67  48  50 NE5       30.26S
BOWLING GREEN  CLOUDY    67  48  50 CALM      30.27S
GLASGOW        MOCLDY    62  50  64 CALM      30.28R
$$

KYZ024-025-028>034-038-045-046-053-230200-
NORTH CENTRAL KENTUCKY

CITY           SKY/WX    TMP DP  RH WIND       PRES   REMARKS
LOUISVILLE/SDF CLOUDY    69  49  48 SW5       30.25R
LOUISVILLE/LOU MOCLDY    70  45  40 CALM      30.25R
FORT KNOX      CLOUDY    62  54  73 CALM      30.24S
$$

KYZ035>037-039>044-047>052-055>060-089>105-230200-
NORTHEAST KENTUCKY

CITY           SKY/WX    TMP DP  RH WIND       PRES   REMARKS
LEXINGTON      PTCLDY    64  48  56 S3        30.27R
COVINGTON      CLOUDY    68  45  43 SW5       30.24R
FRANKFORT      PTCLDY    66  47  50 SW5       30.25R
$$

KYZ054-064>069-076>088-106>120-230200-
SOUTHEAST KENTUCKY

CITY           SKY/WX    TMP DP  RH WIND       PRES   REMARKS
JACKSON        MOCLDY    63  42  46 CALM      30.29R
LONDON         CLEAR     65  40  39 CALM      30.29R
SOMERSET       PTCLDY    61  45  55 CALM      30.30R
MIDDLESBORO    CLEAR     60  47  62 W3        30.30R
MONTICELLO     CLEAR     58  49  72 CALM      30.32R
$$



USA.gov is the U.S. government's official web portal to all federal, state and local government web resources and services.